map of UIO home
Great Circle Mapper logo
UIO - Airport
Location
City:  Quito, Pichincha, Ecuador
Near (Alt.):Tababela
Name:Mitad del Mundo International Airport
ICAO:SEQM
IATA:UIO

Details
Type:Airport (Aerodrome, Airfield)
Use:Public/Civil, International (customs port of entry)
Latitude:006'48"S (-0.113332)
Longitude:7821'31"W (-78.358610)
Elevation:7874 ft (2400 m)
Variation:3.37W (WMM2015 magnetic declination)
-0.16 annual change
Runways:1
Longest:13451 ft (4100 m), paved

Weather
METAR:SEQM 281100Z VRB03KT 9999 FEW030 09/07 Q1024 NOSIG RMK A3025
TAF:SEQM 280410Z 2806/2906 00000KT 9999 FEW040 SCT100
BECMG 2815/2817 33008KT
BECMG 2819/2821 03012KT
BECMG 2823/2901 05004KT TX26/2819Z TN10/2811Z

Related Locations
Nearby:
Farthest:PKU: 12437 mi / 20015 km
Pekanbaru [Sultan Syarif Kasim II Intl (Simpang Tiga Airport)], RI, ID

Find:

   beyond  
but within

Other Information
Maps:
NOTAMs:
Links:
Sources:

  
flag of Ecuador
flag of Pichincha
  

Sectional Chart

Flight Planning
at skyvector.com

Satellite Image

Google Maps Satellite view

 

Copyright © 2004-2016 Karl L. Swartz. All rights reserved.
The Great Circle Mapper name and logo are trademarks of the Great Circle Mapper.
All other trademarks mentioned herein belong to their respective owners.
Please see credits for attibutions and further copyright information.

  Follow gcmap on Facebook Follow gcmap on Twitter Follow gcmap on Google+ GCmap on LinkedIn

hCard Microformat

Geo Microformat